Back to catalog

KUIPER-00247

AliveCommunicationsLEO
NORAD 67152·PAYLOAD·🇺🇸 United States

Launched Dec 15, 2025 from Cape Canaveral Space Force Station

Loading…

Next Passes (next 24 hours)

TLE

FreshSource: CelesTrak SupGP

Epoch: Sep 14, 2026, 12:24 UTC

1 67152C 25301V   26257.51686343  .00005211  00000+0  68212-3 0  2577
2 67152  51.8955 303.0670 0000443  73.9544 119.9416 14.79925461    18

Track KUIPER-00247 in real time with AllMySat

Download on the App Store